�������l�o���
Date,Time,MP-1(��Sv/h),MP-2(��Sv/h),MP-3(��Sv/h),MP-4(��Sv/h),MP-5(��Sv/h),MP-6(��Sv/h),MP-7(��Sv/h),MP-8(��Sv/h),����,����(m/s),���J
2018/07/31,00:00,0.897,1.265,0.887,1.573,1.139,0.480,0.840,0.793,��쓌,5.3,��
2018/07/31,00:10,0.897,1.266,0.887,1.571,1.138,0.480,0.837,0.792,��,5.2,��
2018/07/31,00:20,0.896,1.265,0.886,1.572,1.139,0.478,0.838,0.790,��,4.6,��
2018/07/31,00:30,0.897,1.265,0.887,1.572,1.138,0.478,0.839,0.790,��,3.2,��
2018/07/31,00:40,0.894,1.266,0.887,1.572,1.138,0.480,0.838,0.792,��,2.8,��
2018/07/31,00:50,0.894,1.267,0.885,1.573,1.137,0.480,0.838,0.791,��,2.0,��
2018/07/31,01:00,0.894,1.263,0.888,1.571,1.138,0.478,0.837,0.790,��,2.6,��
2018/07/31,01:10,0.894,1.262,0.886,1.573,1.140,0.478,0.837,0.791,��,2.0,��
2018/07/31,01:20,0.895,1.266,0.886,1.570,1.139,0.479,0.838,0.793,��,2.6,��
2018/07/31,01:30,0.894,1.264,0.887,1.573,1.138,0.480,0.837,0.792,��,2.3,��
2018/07/31,01:40,0.897,1.265,0.889,1.573,1.138,0.479,0.839,0.792,��쓌,2.8,��
2018/07/31,01:50,0.898,1.268,0.886,1.571,1.139,0.479,0.839,0.791,��,2.6,��
2018/07/31,02:00,0.895,1.266,0.887,1.572,1.135,0.480,0.837,0.791,��,1.7,��
2018/07/31,02:10,0.894,1.265,0.887,1.572,1.139,0.479,0.837,0.791,��쓌,1.4,��
2018/07/31,02:20,0.893,1.264,0.890,1.571,1.138,0.480,0.838,0.792,��쐼,1.4,��
2018/07/31,02:30,0.897,1.266,0.888,1.572,1.138,0.480,0.839,0.792,�쐼,1.4,��
2018/07/31,02:40,0.895,1.267,0.888,1.572,1.141,0.480,0.839,0.792,��쐼,2.2,��
2018/07/31,02:50,0.897,1.267,0.889,1.571,1.140,0.479,0.838,0.793,��,2.6,��
2018/07/31,03:00,0.895,1.266,0.889,1.569,1.138,0.479,0.839,0.791,��,2.2,��
2018/07/31,03:10,0.897,1.264,0.888,1.572,1.140,0.478,0.838,0.790,��,2.2,��
2018/07/31,03:20,0.897,1.267,0.887,1.573,1.140,0.480,0.839,0.792,��,2.0,��
2018/07/31,03:30,0.899,1.265,0.890,1.574,1.140,0.480,0.838,0.791,��쓌,1.7,��
2018/07/31,03:40,0.897,1.262,0.890,1.575,1.138,0.479,0.837,0.791,��,0.9,��
2018/07/31,03:50,0.897,1.267,0.888,1.574,1.140,0.479,0.837,0.793,��,1.7,��
2018/07/31,04:00,0.899,1.265,0.889,1.576,1.143,0.481,0.838,0.793,��쐼,1.9,��
2018/07/31,04:10,0.899,1.264,0.888,1.576,1.138,0.481,0.838,0.794,��쐼,1.4,��
2018/07/31,04:20,0.896,1.266,0.888,1.572,1.143,0.482,0.839,0.794,�쐼,0.9,��
2018/07/31,04:30,0.900,1.266,0.891,1.577,1.141,0.481,0.839,0.792,���쐼,0.6,��
2018/07/31,04:40,0.899,1.265,0.890,1.576,1.143,0.480,0.837,0.793,-,CALM,��
2018/07/31,04:50,0.897,1.265,0.892,1.576,1.139,0.479,0.838,0.792,-,CALM,��
2018/07/31,05:00,0.900,1.263,0.889,1.574,1.141,0.482,0.839,0.794,�k��,0.8,��
2018/07/31,05:10,0.899,1.268,0.887,1.574,1.140,0.479,0.839,0.792,���k��,0.8,��
2018/07/31,05:20,0.900,1.266,0.889,1.573,1.140,0.480,0.839,0.794,-,CALM,��
2018/07/31,05:30,0.898,1.266,0.890,1.573,1.141,0.481,0.840,0.792,-,CALM,��
2018/07/31,05:40,0.901,1.266,0.889,1.572,1.140,0.482,0.840,0.793,-,CALM,��
2018/07/31,05:50,0.898,1.266,0.889,1.573,1.139,0.480,0.838,0.794,�k�k��,0.6,��
2018/07/31,06:00,0.899,1.265,0.890,1.572,1.141,0.480,0.839,0.793,�k��,1.1,��
2018/07/31,06:10,0.899,1.265,0.890,1.575,1.143,0.480,0.839,0.793,�k��,1.7,��
2018/07/31,06:20,0.898,1.268,0.888,1.574,1.138,0.478,0.841,0.794,�k�k��,1.9,��
2018/07/31,06:30,0.901,1.270,0.890,1.576,1.140,0.481,0.838,0.792,�k�k��,1.2,��
2018/07/31,06:40,0.901,1.267,0.891,1.574,1.143,0.480,0.840,0.792,�k�k��,1.5,��
2018/07/31,06:50,0.899,1.266,0.891,1.574,1.139,0.481,0.839,0.795,�k,1.5,��
2018/07/31,07:00,0.900,1.268,0.890,1.577,1.142,0.482,0.839,0.794,�k,1.1,��
2018/07/31,07:10,0.902,1.265,0.892,1.574,1.138,0.480,0.840,0.794,�k,1.4,��
2018/07/31,07:20,0.899,1.266,0.889,1.575,1.140,0.481,0.840,0.794,�k��,0.8,��
2018/07/31,07:30,0.903,1.272,0.890,1.575,1.145,0.482,0.839,0.794,�k��,0.6,��
2018/07/31,07:40,0.899,1.273,0.891,1.576,1.142,0.482,0.839,0.796,�k,0.8,��
2018/07/31,07:50,0.901,1.270,0.888,1.575,1.141,0.480,0.839,0.793,-,CALM,��
2018/07/31,08:00,0.896,1.270,0.891,1.573,1.142,0.480,0.840,0.794,-,CALM,��
2018/07/31,08:10,0.901,1.265,0.892,1.573,1.143,0.480,0.838,0.795,��,0.9,��
2018/07/31,08:20,0.903,1.265,0.889,1.573,1.140,0.480,0.837,0.795,���쓌,1.7,��
2018/07/31,08:30,0.901,1.264,0.888,1.575,1.142,0.481,0.840,0.793,��,1.5,��
2018/07/31,08:40,0.901,1.268,0.889,1.576,1.143,0.480,0.840,0.793,���쓌,1.7,��
2018/07/31,08:50,0.900,1.265,0.889,1.575,1.140,0.481,0.840,0.791,�쓌,3.3,��
2018/07/31,09:00,0.898,1.263,0.887,1.574,1.141,0.478,0.839,0.791,��쓌,4.0,��
2018/07/31,09:10,0.896,1.263,0.886,1.573,1.142,0.477,0.841,0.791,��쓌,3.6,��
2018/07/31,09:20,0.897,1.264,0.887,1.573,1.139,0.478,0.841,0.792,��쓌,4.0,��
2018/07/31,09:30,0.899,1.260,0.887,1.571,1.143,0.478,0.842,0.790,��쓌,4.3,��
2018/07/31,09:40,0.900,1.266,0.888,1.575,1.145,0.479,0.840,0.792,��쓌,5.0,��
2018/07/31,09:50,0.903,1.266,0.888,1.575,1.144,0.479,0.840,0.792,��쓌,5.7,��
2018/07/31,10:00,0.903,1.267,0.888,1.577,1.145,0.479,0.841,0.791,��쓌,5.9,��
2018/07/31,10:10,0.905,1.266,0.885,1.575,1.144,0.478,0.837,0.790,��쓌,6.6,��
2018/07/31,10:20,0.904,1.266,0.889,1.573,1.146,0.479,0.836,0.790,��쓌,6.2,��
2018/07/31,10:30,0.906,1.268,0.888,1.576,1.144,0.477,0.837,0.791,��쓌,5.2,��
2018/07/31,10:40,0.904,1.265,0.888,1.574,1.147,0.477,0.839,0.791,��쓌,5.2,��
2018/07/31,10:50,0.904,1.269,0.888,1.580,1.146,0.478,0.840,0.792,��쓌,4.9,��
2018/07/31,11:00,0.907,1.271,0.890,1.577,1.146,0.477,0.840,0.791,��쓌,6.5,��
2018/07/31,11:10,0.906,1.271,0.888,1.577,1.147,0.478,0.839,0.790,��쓌,6.3,��
2018/07/31,11:20,0.905,1.270,0.889,1.575,1.146,0.478,0.840,0.791,��쓌,5.8,��
2018/07/31,11:30,0.906,1.272,0.889,1.575,1.148,0.477,0.839,0.793,��쓌,6.8,��
2018/07/31,11:40,0.907,1.271,0.890,1.575,1.148,0.477,0.841,0.792,��쓌,6.5,��
2018/07/31,11:50,0.904,1.271,0.888,1.574,1.148,0.475,0.840,0.793,��쓌,6.4,��
2018/07/31,12:00,0.903,1.269,0.890,1.575,1.149,0.475,0.838,0.793,��쓌,6.4,��
2018/07/31,12:10,0.907,1.270,0.889,1.576,1.149,0.478,0.839,0.792,��쓌,6.4,��
2018/07/31,12:20,0.906,1.270,0.891,1.578,1.147,0.476,0.839,0.792,��쓌,7.6,��
2018/07/31,12:30,0.908,1.273,0.889,1.578,1.151,0.476,0.840,0.792,��쓌,5.5,��
2018/07/31,12:40,0.912,1.268,0.888,1.577,1.152,0.475,0.842,0.794,��쓌,6.3,��
2018/07/31,12:50,0.911,1.271,0.892,1.575,1.150,0.475,0.840,0.793,��쓌,6.5,��
2018/07/31,13:00,0.913,1.271,0.890,1.575,1.150,0.477,0.841,0.792,��쓌,6.7,��
2018/07/31,13:10,0.917,1.271,0.890,1.579,1.151,0.477,0.841,0.792,��쓌,7.6,��
2018/07/31,13:20,0.915,1.270,0.889,1.578,1.154,0.475,0.841,0.793,��쓌,6.9,��
2018/07/31,13:30,0.916,1.267,0.891,1.579,1.154,0.476,0.839,0.792,��쓌,8.3,��
2018/07/31,13:40,0.916,1.268,0.891,1.579,1.153,0.476,0.840,0.792,��쓌,6.3,��
2018/07/31,13:50,0.916,1.272,0.892,1.578,1.154,0.475,0.841,0.793,��쓌,7.4,��
2018/07/31,14:00,0.916,1.270,0.890,1.576,1.151,0.477,0.840,0.792,��쓌,7.5,��
2018/07/31,14:10,0.918,1.270,0.892,1.579,1.153,0.478,0.843,0.793,��쓌,7.2,��
2018/07/31,14:20,0.914,1.268,0.891,1.579,1.153,0.477,0.842,0.795,��쓌,8.3,��
2018/07/31,14:30,0.916,1.272,0.890,1.579,1.155,0.475,0.839,0.792,��쓌,7.7,��
2018/07/31,14:40,0.917,1.272,0.890,1.579,1.152,0.476,0.841,0.793,��쓌,8.5,��
2018/07/31,14:50,0.917,1.274,0.890,1.579,1.155,0.476,0.842,0.794,��쓌,7.7,��
2018/07/31,15:00,0.916,1.274,0.890,1.579,1.153,0.477,0.840,0.793,��쓌,8.6,��
2018/07/31,15:10,0.917,1.273,0.891,1.581,1.155,0.477,0.842,0.793,��쓌,9.2,��
2018/07/31,15:20,0.915,1.271,0.893,1.583,1.155,0.478,0.841,0.792,��쓌,7.0,��
2018/07/31,15:30,0.917,1.271,0.892,1.582,1.154,0.478,0.841,0.793,��쓌,7.4,��
2018/07/31,15:40,0.915,1.271,0.894,1.579,1.152,0.477,0.842,0.793,��쓌,7.4,��
2018/07/31,15:50,0.917,1.274,0.889,1.581,1.153,0.477,0.841,0.793,��쓌,7.2,��
2018/07/31,16:00,0.916,1.275,0.892,1.582,1.157,0.480,0.840,0.792,��,6.8,��
2018/07/31,16:10,0.917,1.272,0.892,1.582,1.156,0.477,0.844,0.794,��,7.3,��
2018/07/31,16:20,0.915,1.274,0.892,1.582,1.158,0.479,0.843,0.792,��쓌,6.9,��
2018/07/31,16:30,0.917,1.275,0.890,1.584,1.157,0.479,0.841,0.794,��쓌,6.5,��
2018/07/31,16:40,0.917,1.272,0.892,1.583,1.156,0.480,0.843,0.793,��,7.0,��
2018/07/31,16:50,0.917,1.275,0.892,1.582,1.157,0.479,0.843,0.792,��쓌,7.6,��
2018/07/31,17:00,0.917,1.276,0.894,1.584,1.157,0.479,0.842,0.793,��쓌,7.4,��
2018/07/31,17:10,0.918,1.274,0.890,1.584,1.157,0.479,0.844,0.793,��쓌,8.4,��
2018/07/31,17:20,0.917,1.274,0.893,1.583,1.156,0.483,0.841,0.795,��,6.8,��
2018/07/31,17:30,0.918,1.274,0.892,1.585,1.154,0.482,0.840,0.794,��쓌,7.8,��
2018/07/31,17:40,0.916,1.272,0.893,1.583,1.155,0.481,0.841,0.794,��,6.4,��
2018/07/31,17:50,0.915,1.273,0.890,1.584,1.156,0.482,0.841,0.793,��,6.5,��
2018/07/31,18:00,0.917,1.275,0.892,1.586,1.156,0.482,0.842,0.795,��,6.6,��
2018/07/31,18:10,0.918,1.275,0.893,1.585,1.157,0.481,0.841,0.793,��,5.9,��
2018/07/31,18:20,0.916,1.276,0.894,1.583,1.155,0.480,0.842,0.794,��,7.4,��
2018/07/31,18:30,0.915,1.274,0.892,1.584,1.158,0.480,0.842,0.795,��,7.4,��
2018/07/31,18:40,0.917,1.277,0.894,1.583,1.158,0.481,0.842,0.793,��,6.0,��
2018/07/31,18:50,0.917,1.277,0.893,1.585,1.157,0.481,0.842,0.793,��,6.4,��
2018/07/31,19:00,0.916,1.275,0.894,1.585,1.157,0.481,0.841,0.793,��,7.2,��
2018/07/31,19:10,0.916,1.277,0.893,1.586,1.158,0.482,0.842,0.795,��,6.3,��
2018/07/31,19:20,0.914,1.276,0.893,1.584,1.156,0.482,0.842,0.794,��,5.2,��
2018/07/31,19:30,0.916,1.274,0.893,1.585,1.159,0.482,0.839,0.794,��,5.0,��
2018/07/31,19:40,0.915,1.278,0.892,1.586,1.157,0.481,0.841,0.794,��,4.9,��
2018/07/31,19:50,0.916,1.275,0.893,1.584,1.160,0.482,0.842,0.795,��,4.6,��
2018/07/31,20:00,0.917,1.277,0.893,1.584,1.157,0.483,0.842,0.793,��,4.3,��
2018/07/31,20:10,0.917,1.275,0.895,1.588,1.155,0.482,0.841,0.794,��,4.2,��
2018/07/31,20:20,0.917,1.276,0.895,1.588,1.156,0.483,0.840,0.794,��,4.5,��
2018/07/31,20:30,0.918,1.276,0.895,1.586,1.157,0.482,0.843,0.794,��,4.0,��
2018/07/31,20:40,0.919,1.277,0.896,1.585,1.155,0.484,0.841,0.794,��,4.0,��
2018/07/31,20:50,0.918,1.274,0.898,1.585,1.157,0.483,0.843,0.794,��,3.3,��
2018/07/31,21:00,0.917,1.274,0.894,1.585,1.158,0.485,0.842,0.795,��,3.1,��
2018/07/31,21:10,0.919,1.276,0.895,1.587,1.156,0.484,0.843,0.795,��,2.5,��
2018/07/31,21:20,0.920,1.276,0.896,1.586,1.157,0.483,0.842,0.795,��쓌,1.5,��
2018/07/31,21:30,0.916,1.275,0.895,1.586,1.157,0.483,0.842,0.794,��쓌,1.5,��
2018/07/31,21:40,0.921,1.274,0.896,1.584,1.156,0.485,0.843,0.794,��,3.8,��
2018/07/31,21:50,0.920,1.275,0.893,1.586,1.157,0.482,0.841,0.795,��,3.8,��
2018/07/31,22:00,0.919,1.275,0.896,1.584,1.156,0.484,0.841,0.795,��쐼,3.3,��
2018/07/31,22:10,0.919,1.276,0.896,1.585,1.157,0.485,0.842,0.795,��쐼,3.1,��
2018/07/31,22:20,0.920,1.275,0.898,1.587,1.160,0.484,0.842,0.796,�쐼,1.7,��
2018/07/31,22:30,0.919,1.274,0.896,1.589,1.158,0.484,0.841,0.796,���쐼,1.5,��
2018/07/31,22:40,0.917,1.274,0.897,1.586,1.157,0.483,0.840,0.794,���쐼,1.4,��
2018/07/31,22:50,0.917,1.277,0.896,1.588,1.157,0.483,0.842,0.796,���쐼,1.1,��
2018/07/31,23:00,0.916,1.275,0.897,1.586,1.159,0.483,0.844,0.796,��쓌,0.6,��
2018/07/31,23:10,0.919,1.276,0.896,1.588,1.156,0.483,0.842,0.795,�쐼,0.9,��
2018/07/31,23:20,0.918,1.275,0.899,1.586,1.157,0.483,0.842,0.796,��,1.5,��
2018/07/31,23:30,0.920,1.272,0.898,1.588,1.159,0.483,0.842,0.794,���k��,1.7,��
2018/07/31,23:40,0.919,1.276,0.897,1.586,1.159,0.484,0.844,0.796,���k��,1.2,��
2018/07/31,23:50,0.920,1.276,0.898,1.586,1.158,0.484,0.844,0.795,�k��,2.0,��
